Погода в Хужире

Россия / Иркутская область     53°11′36″N   107°20′37″E
темп.,
°C
ветер,
м/с
пор.,
м/с
влажн.,
%
обл.,
%
осадки,
мм/ч
давл.,
гПа
погр.,
м
25 февраля, чт
чт2523:00−17ссз11794 0.0 102720
02:00−16ссв127851 0.0 102720
05:00−15всв2381100 0.0 102429
08:00−15св338497 0.0 102547
11:00−13всв348881 0.0 1024175
14:00−13св458753 0.0 1021394
17:00−12св4789100 0.0 1019257
20:00−13св71086100 0.0 1017300
26 февраля, пт
пт2623:00−13св91287100 0.1 1013362
02:00−13св6990100 0.1 1014243
05:00−14в2293100 0.1 1015107
08:00−13юз2295100 0.3 101855
11:00−11ююз3489100 0.6 1019250
14:00−10ююз2283100 0.6 1016324
17:00−9ю1291100 0.3 101887
20:00−11ссз4578100 0.8 1020144
27 февраля, сб
сб2723:00−14сз5870100 0.0 1022283
02:00−16сз4971100 0.0 1025515
05:00−18зсз4774100 0.0 1029159
08:00−21з457568 0.0 103358
11:00−18сз5106557 0.0 1035748
14:00−17зсз475868 0.0 10351347
17:00−18сз346924 0.0 1036153
20:00−22ссз337417 0.0 103826
28 февраля, вс
вс2823:00−23сз337624 0.0 104026
02:00−23сз337646 0.0 104027
05:00−23сз337266 0.0 104225
08:00−23сз236539 0.0 104221
11:00−19ююз115367 0.0 1042180
14:00−18зюз236178 0.0 1040292
17:00−17юз347888 0.1 1039146
20:00−20з238382 0.1 104020
1 марта, пн
пн123:00−20з347842 0.0 104125
02:00−20зсз347060 0.0 104132
05:00−21сз226780 0.0 104022
08:00−20сз227082 0.0 104020
11:00−17ююв226899 0.0 1038211
14:00−15ююз4483100 0.3 1035496
17:00−15ююз458798 0.1 1032146
20:00−18з228065 0.1 103220